Regional Weather Roundup
Issued by NWS

Home | Current Version | Previous Version | Text Only | Print | Product List | Glossary Off
Versions: 1 2 3 4 5 6 7 8 9 10 11 12 13 14 15 16 17 18 19 20 21 22 23 24 25 26 27 28 29 30 31 32 33 34 35 36 37 38 39 40 41 42 43 44 45 46 47 48 49 50

000
ASUS43 KLMK 281702
RWRKY
KENTUCKY REGIONAL WEATHER ROUNDUP
NATIONAL WEATHER SERVICE LOUISVILLE KY
1200 PM EST SAT FEB 28 2015

NOTE "FAIR" INDICATES FEW OR NO CLOUDS BELOW 12,000 FEET
WITH NO SIGNIFICANT WEATHER AND/OR OBSTRUCTIONS TO VISIBILITY.

KYZ001>023-026-027-061>063-070>075-281800-
WESTERN AND SOUTH CENTRAL KENTUCKY

CITY           SKY/WX    TMP DP  RH WIND       PRES   REMARKS
PADUCAH        CLOUDY    27  14  58 NE8       30.60F WCI  19
HENDERSON      CLOUDY    27  12  54 E8        30.64F WCI  18
OWENSBORO      PTSUNNY   28  12  51 E7        30.64F WCI  21
HOPKINSVILLE   PTSUNNY   29  15  56 E8        30.59F WCI  21
BOWLING GREEN  PTSUNNY   31  15  52 NE8       30.61F WCI  23
GLASGOW        NOT AVBL
$$

KYZ024-025-028>034-038-045-046-053-281800-
NORTH CENTRAL KENTUCKY

CITY           SKY/WX    TMP DP  RH WIND       PRES   REMARKS
LOUISVILLE/SDF PTSUNNY   29  10  45 E7        30.66F WCI  22
LOUISVILLE/LOU CLOUDY    27   9  46 VRB7      30.67F WCI  19
FORT KNOX      CLOUDY    28  11  50 NE9       30.61F WCI  19
$$

KYZ035>037-039>044-047>052-055>060-089>105-281800-
NORTHEAST KENTUCKY

CITY           SKY/WX    TMP DP  RH WIND       PRES   REMARKS
LEXINGTON      PTSUNNY   28  12  51 NE8       30.66S WCI  20
COVINGTON      CLOUDY    22   6  50 E7        30.69F WCI  13
FRANKFORT        N/A     25  10  53 NE7       30.66F WCI  17
$$

KYZ054-064>069-076>088-106>120-281800-
SOUTHEAST KENTUCKY

CITY           SKY/WX    TMP DP  RH WIND       PRES   REMARKS
JACKSON        MOSUNNY   31  11  43 VRB3      30.61F
LONDON         PTSUNNY   31  12  45 E6        30.61F WCI  25
SOMERSET       NOT AVBL
MIDDLESBORO    CLOUDY    35  19  52 CALM      30.61F
MONTICELLO     SUNNY     36  16  44 E3        30.64F
$$



USA.gov is the U.S. government's official web portal to all federal, state and local government web resources and services.